TimeAKDT,TemperatureF,Dew PointF,Humidity,Sea Level PressureIn,VisibilityMPH,Wind Direction,Wind SpeedMPH,Gust SpeedMPH,PrecipitationIn,Events,Conditions,WindDirDegrees,DateUTC
12:32 AM,55.4,51.8,88,29.92,10.0,East,6.9,-,N/A,,Overcast,90,2013-08-20 08:32:00
12:39 AM,55.4,51.8,88,29.92,10.0,Variable,6.9,-,N/A,,Overcast,0,2013-08-20 08:39:00
12:54 AM,55.9,51.1,84,29.93,10.0,East,8.1,16.1,N/A,,Overcast,100,2013-08-20 08:54:00
1:11 AM,55.4,51.8,88,29.93,10.0,East,6.9,-,N/A,,Overcast,80,2013-08-20 09:11:00
1:54 AM,55.9,51.1,84,29.94,10.0,East,6.9,-,N/A,,Overcast,90,2013-08-20 09:54:00
2:54 AM,55.9,52.0,87,29.95,10.0,ENE,8.1,-,N/A,,Overcast,70,2013-08-20 10:54:00
3:54 AM,55.9,51.1,84,29.96,10.0,East,9.2,-,N/A,,Overcast,80,2013-08-20 11:54:00
4:54 AM,55.0,51.1,86,29.97,10.0,East,6.9,-,N/A,,Overcast,90,2013-08-20 12:54:00
5:54 AM,55.0,51.1,86,29.98,10.0,ENE,8.1,-,N/A,,Overcast,70,2013-08-20 13:54:00
6:30 AM,55.4,51.8,88,29.98,10.0,East,8.1,17.3,N/A,,Mostly Cloudy,90,2013-08-20 14:30:00
6:39 AM,55.4,51.8,88,29.98,10.0,East,6.9,-,N/A,,Mostly Cloudy,90,2013-08-20 14:39:00
6:54 AM,55.0,51.1,86,29.99,10.0,East,9.2,19.6,N/A,,Overcast,90,2013-08-20 14:54:00
7:54 AM,55.0,51.1,86,30.01,10.0,East,8.1,-,N/A,,Overcast,80,2013-08-20 15:54:00
8:54 AM,55.9,51.1,84,30.02,10.0,East,10.4,-,N/A,,Overcast,100,2013-08-20 16:54:00
9:54 AM,57.9,53.1,84,30.03,10.0,ESE,11.5,19.6,N/A,,Mostly Cloudy,110,2013-08-20 17:54:00
10:10 AM,59.0,53.6,82,30.02,10.0,ESE,13.8,18.4,N/A,,Mostly Cloudy,110,2013-08-20 18:10:00
10:54 AM,60.1,53.1,78,30.05,10.0,ESE,11.5,20.7,N/A,,Overcast,110,2013-08-20 18:54:00
11:54 AM,57.0,52.0,83,30.06,10.0,East,12.7,19.6,N/A,,Overcast,100,2013-08-20 19:54:00
12:54 PM,57.0,52.0,83,30.06,10.0,East,10.4,20.7,N/A,,Overcast,100,2013-08-20 20:54:00
1:54 PM,60.1,52.0,75,30.07,10.0,East,10.4,21.9,N/A,,Overcast,100,2013-08-20 21:54:00
2:54 PM,60.1,52.0,75,30.08,10.0,East,9.2,24.2,N/A,,Overcast,100,2013-08-20 22:54:00
3:54 PM,57.9,52.0,81,30.08,10.0,East,11.5,21.9,N/A,,Overcast,100,2013-08-20 23:54:00
4:54 PM,57.9,51.1,78,30.09,10.0,ESE,8.1,-,N/A,,Overcast,110,2013-08-21 00:54:00
5:54 PM,57.0,51.1,81,30.08,10.0,East,10.4,18.4,N/A,,Overcast,90,2013-08-21 01:54:00
6:54 PM,57.0,51.1,81,30.08,10.0,East,10.4,18.4,N/A,,Overcast,90,2013-08-21 02:54:00
7:49 PM,55.4,51.8,88,30.06,10.0,Variable,6.9,-,N/A,,Overcast,0,2013-08-21 03:49:00
7:54 PM,57.0,52.0,83,30.07,10.0,ENE,6.9,-,N/A,,Overcast,70,2013-08-21 03:54:00
8:54 PM,55.9,51.1,84,30.08,10.0,ENE,8.1,19.6,N/A,,Overcast,70,2013-08-21 04:54:00
9:31 PM,55.4,51.8,88,30.07,10.0,ENE,10.4,18.4,N/A,,Overcast,70,2013-08-21 05:31:00
9:54 PM,55.9,51.1,84,30.08,10.0,Variable,6.9,-,N/A,,Overcast,0,2013-08-21 05:54:00
10:22 PM,55.4,51.8,88,30.07,10.0,ENE,10.4,17.3,N/A,,Overcast,70,2013-08-21 06:22:00
10:54 PM,55.0,52.0,89,30.09,10.0,East,3.5,-,N/A,,Overcast,90,2013-08-21 06:54:00
11:54 PM,55.9,52.0,87,30.07,10.0,East,9.2,-,N/A,,Overcast,100,2013-08-21 07:54:00